Regional Weather Roundup
Issued by NWS

Home | Current Version | Previous Version | Text Only | Print | Product List | Glossary Off
Versions: 1 2 3 4 5 6 7 8 9 10 11 12 13 14 15 16 17 18 19 20 21 22 23 24 25 26 27

000
ASUS45 KBOU 260607
RWRCO

WEATHER ROUNDUP FOR COLORADO
NATIONAL WEATHER SERVICE DENVER/BOULDER CO
1200 AM MDT SUN OCT 26 2014

NOTE: "FAIR" INDICATES FEW OR NO CLOUDS BELOW 12000 FEET WITH NO
SIGNIFICANT WEATHER AND/OR OBSTRUCTIONS TO VISIBILITY.

COZ001>005-013-030-031-260700-
...NORTHWEST COLORADO...

CITY           SKY/WX    TMP DP  RH WIND       PRES   REMARKS
CRAIG          PTCLDY    40  30  67 SE5       30.09S
HAYDEN         NOT AVBL
MEEKER         CLEAR     42  33  70 NE5       30.10F
MOUNT WERNER   NOT AVBL
STEAMBOAT SPGS PTCLDY    44  26  48 CALM      30.12F
WALDEN         CLEAR     34  23  64 S7        30.15F WCI  28
$$

COZ006>008-011-260700-
...WEST CENTRAL VALLEYS...

CITY           SKY/WX    TMP DP  RH WIND       PRES   REMARKS
GRAND JUNCTION CLOUDY    60  33  36 SE9       30.04F
MONTROSE       PTCLDY    52  34  50 S6        30.15F
EAGLE          CLEAR     45  30  57 E6        30.17S
RIFLE          PTCLDY    48  33  56 E6        30.08F
DELTA          MOCLDY    60  34  38 NE8       30.10F
NUCLA          PTCLDY    55  32  41 E8        30.17F
$$

COZ017>023-064>068-260700-
...SOUTHWEST COLORADO...

CITY           SKY/WX    TMP DP  RH WIND       PRES   REMARKS
DURANGO        PTCLDY    45  35  68 CALM      30.24S
CORTEZ         PTCLDY    46  36  68 NE3       30.18F
PAGOSA SPRINGS CLEAR     41  31  66 CALM      30.29F
TELLURIDE      MOCLDY    52  32  46 CALM      30.35F
WOLF CREEK PAS MOCLDY    37  27  65 SW30G41     N/A
$$

COZ009-010-012-014-032>034-037-058>063-260700-
...CENTRAL COLORADO...

CITY           SKY/WX    TMP DP  RH WIND       PRES   REMARKS
ASPEN          CLEAR     45  28  51 S9        30.23F
BUENA VISTA    CLEAR     38  22  51 W6        30.23F
COPPER MTN     NOT AVBL
BERTHOUD PASS  FAIR      36  32  87 W22G31    30.43F
COTTONWOOD PAS CLEAR     52  23  32 W16G26    30.31F
GUNNISON       CLEAR     34  23  64 SE3       30.29F
KREMMLING      CLEAR     43  23  45 SE6         N/A
LEADVILLE      CLEAR     39  19  44 NE5       30.30F
MONARCH PASS   CLEAR     37  25  60 SW29G37   30.55S
SALIDA         CLEAR     54  26  33 W8        30.28F
SUNLIGHT       PTCLDY    43  32  65 SW3       30.38F
WILKERSON PASS NOT AVBL
$$

COZ069>075-260700-
...SAN LUIS VALLEY/SANGRE DE CRISTO MOUNTAINS...

CITY           SKY/WX    TMP DP  RH WIND       PRES   REMARKS
ALAMOSA        PTCLDY    46  25  43 SW9       30.24F
LA VETA PASS   CLEAR     45  21  39 S13G22    30.37S
SAGUACHE       CLEAR     45  23  42 NW13      30.27R
$$

COZ035-036-038>040-260700-
...NORTHERN COLORADO FRONT RANGE...

CITY           SKY/WX    TMP DP  RH WIND       PRES   REMARKS
DENVER INTL AP CLEAR     57  24  28 SW15      29.97F
DMNS CITY PARK   N/A     55  25  31 SW5       29.98F
AURORA         CLEAR     54  24  31 S7        30.00F
FRONT RANGE AP NOT AVBL
ERIE MUNI ARPT CLEAR     45  29  54 CALM      29.96F
BOULDER MUN AP CLEAR     55  27  33 W6        29.97F
CENTENNIAL     CLEAR     54  24  31 S10       30.01F
BROOMFIELD     CLEAR     59  21  23 W7        29.99F
FORT COLLINS   CLEAR     52  28  40 N7        29.97F
LONGMONT       CLEAR     50  29  44 SW3       29.98F
$$

COZ041-046-047-076>085-087-088-260700-
...PIKES PEAK/PALMER DIVIDE AND SOUTHERN FOOTHILLS...

CITY           SKY/WX    TMP DP  RH WIND       PRES   REMARKS
COLO. SPRINGS  CLEAR     60  23  24 CALM      30.05F
A. F. ACADEMY  CLEAR     43  24  46 NW8       30.07F
ELLICOTT       NOT AVBL
FALCON         CLEAR     49  24  36 W7        30.10F
FORT CARSON    CLEAR     51  27  39 NW7       30.02F
LIMON          CLEAR     39  32  76 NW3       29.99F
MONUMENT HILL  CLEAR     50  21  32 SW7       30.08F
TRINIDAD       CLEAR     48  28  46 NW12      30.05F
$$

COZ042>045-048>051-090-091-260700-
...NORTHEAST COLORADO...

CITY           SKY/WX    TMP DP  RH WIND       PRES   REMARKS
GREELEY ARPT   CLEAR     43  27  52 NW7       29.95F
AKRON          CLEAR     55  34  45 S7        29.94F
BURLINGTON     CLEAR     45  35  68 SW6       29.91F
WRAY           CLEAR     44  35  70 SW3       29.91F
STERLING       CLEAR     43  36  75 N3        29.91F
HOLYOKE        CLEAR     46  41  81 E3        29.91F
FORT MORGAN    CLEAR     50  32  50 E6        29.93F
$$

COZ086-089-092>099-260700-
...SOUTHEAST COLORADO...

CITY           SKY/WX    TMP DP  RH WIND       PRES   REMARKS
PUEBLO         CLEAR     47  29  49 W7        29.97F
LA JUNTA       CLEAR     54  34  46 CALM      29.92F
LAMAR          CLEAR     50  36  58 W5        29.88F
SPRINGFIELD      N/A     56  41  57 SW8       29.95F
$$



USA.gov is the U.S. government's official web portal to all federal, state and local government web resources and services.